Time,TemperatureF,DewpointF,PressureIn,WindDirection,WindDirectionDegrees,WindSpeedMPH,WindSpeedGustMPH,Humidity,HourlyPrecipIn,Conditions,Clouds,dailyrainin,SoftwareType,DateUTC
2013-06-19 00:02:00,58.4,49.5,30.10,East,89,0.0,0.0,72,-99.99,,,0.00,1-wire,2013-06-19 05:02:00,
2013-06-19 00:07:00,58.1,49.5,30.10,ESE,107,0.0,0.0,73,-99.99,,,0.00,1-wire,2013-06-19 05:07:00,
2013-06-19 00:12:00,58.1,49.5,30.10,ESE,107,0.0,0.0,73,-99.99,,,0.00,1-wire,2013-06-19 05:12:00,
2013-06-19 00:17:00,58.1,49.1,30.10,ESE,107,0.0,0.0,72,-99.99,,,0.00,1-wire,2013-06-19 05:17:00,
2013-06-19 00:22:00,57.9,49.3,30.10,ESE,106,0.0,0.0,73,-99.99,,,0.00,1-wire,2013-06-19 05:22:00,
2013-06-19 00:27:00,57.8,49.1,30.11,ESE,106,0.0,0.0,73,-99.99,,,0.00,1-wire,2013-06-19 05:27:00,
2013-06-19 00:32:00,57.5,48.9,30.11,ESE,106,0.0,0.0,73,-99.99,,,0.00,1-wire,2013-06-19 05:32:00,
2013-06-19 00:37:00,57.3,48.7,30.11,SE,124,0.0,0.0,73,-99.99,,,0.00,1-wire,2013-06-19 05:37:00,
2013-06-19 00:43:00,57.1,48.4,30.11,SE,124,0.0,0.0,73,-99.99,,,0.00,1-wire,2013-06-19 05:43:00,
2013-06-19 00:49:00,57.2,48.7,30.12,SE,124,0.0,0.0,73,-99.99,,,0.00,1-wire,2013-06-19 05:49:00,
2013-06-19 00:55:00,57.1,48.9,30.11,ENE,77,0.0,0.0,74,-99.99,,,0.00,1-wire,2013-06-19 05:55:00,
2013-06-19 01:01:00,56.8,48.8,30.11,ENE,77,0.0,0.0,75,-99.99,,,0.00,1-wire,2013-06-19 06:01:00,
2013-06-19 01:07:00,56.6,48.9,30.12,NNE,30,0.0,0.0,75,-99.99,,,0.00,1-wire,2013-06-19 06:07:00,
2013-06-19 01:13:00,56.2,48.8,30.11,NNE,30,0.0,0.0,76,-99.99,,,0.00,1-wire,2013-06-19 06:13:00,
2013-06-19 01:19:00,55.8,48.7,30.11,NNE,30,0.0,0.0,77,-99.99,,,0.00,1-wire,2013-06-19 06:19:00,
2013-06-19 01:25:00,55.4,48.6,30.11,NNE,28,0.0,0.0,78,-99.99,,,0.00,1-wire,2013-06-19 06:25:00,
2013-06-19 01:31:00,55.1,48.5,30.11,NNE,28,0.0,0.0,79,-99.99,,,0.00,1-wire,2013-06-19 06:31:00,
2013-06-19 01:37:00,54.5,48.3,30.12,NNE,30,0.0,0.0,79,-99.99,,,0.00,1-wire,2013-06-19 06:37:00,
2013-06-19 01:43:00,54.6,48.4,30.12,NNE,30,0.0,0.0,80,-99.99,,,0.00,1-wire,2013-06-19 06:43:00,
2013-06-19 01:49:00,54.4,48.4,30.12,NNE,30,0.0,0.0,80,-99.99,,,0.00,1-wire,2013-06-19 06:49:00,
2013-06-19 01:55:00,54.0,48.3,30.11,NNE,30,0.0,0.0,81,-99.99,,,0.00,1-wire,2013-06-19 06:55:00,
2013-06-19 02:01:00,53.7,48.2,30.12,NNE,30,0.0,0.0,82,-99.99,,,0.00,1-wire,2013-06-19 07:01:00,
2013-06-19 02:07:00,53.6,48.2,30.12,NNE,28,0.0,0.0,82,-99.99,,,0.00,1-wire,2013-06-19 07:07:00,
2013-06-19 02:13:00,53.7,48.3,30.12,NNE,28,0.0,0.0,82,-99.99,,,0.00,1-wire,2013-06-19 07:13:00,
2013-06-19 02:19:00,53.3,48.1,30.12,NNE,28,0.0,0.0,83,-99.99,,,0.00,1-wire,2013-06-19 07:19:00,
2013-06-19 02:25:00,53.4,48.1,30.12,NNE,30,0.0,0.0,82,-99.99,,,0.00,1-wire,2013-06-19 07:25:00,
2013-06-19 02:31:00,53.2,48.1,30.12,NNE,30,0.0,0.0,83,-99.99,,,0.00,1-wire,2013-06-19 07:31:00,
2013-06-19 02:37:00,52.8,47.8,30.12,NNE,30,0.0,0.0,83,-99.99,,,0.00,1-wire,2013-06-19 07:37:00,
2013-06-19 02:43:00,52.9,47.8,30.12,NNE,30,0.0,0.0,83,-99.99,,,0.00,1-wire,2013-06-19 07:43:00,
2013-06-19 02:49:00,52.8,47.8,30.12,NNE,30,0.0,0.0,83,-99.99,,,0.00,1-wire,2013-06-19 07:49:00,
2013-06-19 02:55:00,52.6,47.7,30.12,NNE,24,0.0,0.0,83,-99.99,,,0.00,1-wire,2013-06-19 07:55:00,
2013-06-19 03:01:00,52.4,47.7,30.12,NNE,24,0.0,0.0,84,-99.99,,,0.00,1-wire,2013-06-19 08:01:00,
2013-06-19 03:07:00,52.3,47.6,30.12,NNE,21,0.0,0.0,84,-99.99,,,0.00,1-wire,2013-06-19 08:07:00,
2013-06-19 03:13:00,52.0,47.4,30.12,NNE,21,0.0,0.0,84,-99.99,,,0.00,1-wire,2013-06-19 08:13:00,
2013-06-19 03:19:00,51.7,47.3,30.12,NNE,21,0.0,0.0,85,-99.99,,,0.00,1-wire,2013-06-19 08:19:00,
2013-06-19 03:25:00,51.9,47.3,30.12,NNE,25,0.0,0.0,84,-99.99,,,0.00,1-wire,2013-06-19 08:25:00,
2013-06-19 03:31:00,51.6,47.2,30.12,NNE,25,0.0,0.0,85,-99.99,,,0.00,1-wire,2013-06-19 08:31:00,
2013-06-19 03:37:00,51.9,47.4,30.12,NNE,23,0.0,0.0,84,-99.99,,,0.00,1-wire,2013-06-19 08:37:00,
2013-06-19 03:43:00,51.6,47.2,30.12,NNE,23,0.0,0.0,85,-99.99,,,0.00,1-wire,2013-06-19 08:43:00,
2013-06-19 03:49:00,51.7,47.3,30.12,NNE,23,0.0,0.0,85,-99.99,,,0.00,1-wire,2013-06-19 08:49:00,
2013-06-19 03:54:00,51.5,47.0,30.12,NNE,29,0.0,0.0,84,-99.99,,,0.00,1-wire,2013-06-19 08:54:00,
2013-06-19 03:59:00,51.4,47.0,30.12,NNE,29,0.0,0.0,85,-99.99,,,0.00,1-wire,2013-06-19 08:59:00,
2013-06-19 04:04:00,51.2,46.9,30.12,NNE,29,0.0,0.0,85,-99.99,,,0.00,1-wire,2013-06-19 09:04:00,
2013-06-19 04:09:00,51.0,46.6,30.12,NNE,28,0.0,0.0,85,-99.99,,,0.00,1-wire,2013-06-19 09:09:00,
2013-06-19 04:14:00,50.9,46.4,30.12,NNE,28,0.0,0.0,85,-99.99,,,0.00,1-wire,2013-06-19 09:14:00,
2013-06-19 04:19:00,50.8,46.2,30.12,NNE,28,0.0,0.0,84,-99.99,,,0.00,1-wire,2013-06-19 09:19:00,
2013-06-19 04:24:00,50.8,46.2,30.12,NNE,29,0.0,0.0,84,-99.99,,,0.00,1-wire,2013-06-19 09:24:00,
2013-06-19 04:29:00,50.9,46.2,30.12,NNE,29,0.0,0.0,84,-99.99,,,0.00,1-wire,2013-06-19 09:29:00,
2013-06-19 04:34:00,50.8,46.2,30.12,NNE,29,0.0,0.0,84,-99.99,,,0.00,1-wire,2013-06-19 09:34:00,
2013-06-19 04:39:00,50.4,45.9,30.12,NNE,24,0.0,0.0,84,-99.99,,,0.00,1-wire,2013-06-19 09:39:00,
2013-06-19 04:44:00,50.4,45.9,30.12,NNE,24,0.0,0.0,84,-99.99,,,0.00,1-wire,2013-06-19 09:44:00,
2013-06-19 04:49:00,50.3,45.8,30.12,NNE,24,0.0,0.0,84,-99.99,,,0.00,1-wire,2013-06-19 09:49:00,
2013-06-19 04:54:00,50.3,45.9,30.12,NNE,25,0.0,0.0,85,-99.99,,,0.00,1-wire,2013-06-19 09:54:00,
2013-06-19 04:59:00,50.2,45.8,30.12,NNE,25,0.0,0.0,85,-99.99,,,0.00,1-wire,2013-06-19 09:59:00,
2013-06-19 05:04:00,50.3,45.9,30.12,NNE,25,0.0,0.0,85,-99.99,,,0.00,1-wire,2013-06-19 10:04:00,
2013-06-19 05:09:00,50.4,45.9,30.11,NNE,30,0.0,0.0,84,-99.99,,,0.00,1-wire,2013-06-19 10:09:00,
2013-06-19 05:14:00,50.3,45.8,30.12,NNE,30,0.0,0.0,84,-99.99,,,0.00,1-wire,2013-06-19 10:14:00,
2013-06-19 05:19:00,50.5,46.1,30.12,NNE,30,0.0,0.0,85,-99.99,,,0.00,1-wire,2013-06-19 10:19:00,
2013-06-19 05:24:00,50.3,46.0,30.12,NNE,27,0.0,0.0,85,-99.99,,,0.00,1-wire,2013-06-19 10:24:00,
2013-06-19 05:29:00,50.4,46.1,30.12,NNE,27,0.0,0.0,85,-99.99,,,0.00,1-wire,2013-06-19 10:29:00,
2013-06-19 05:34:00,50.3,46.0,30.12,NNE,27,0.0,0.0,85,-99.99,,,0.00,1-wire,2013-06-19 10:34:00,
2013-06-19 05:39:00,50.2,45.9,30.12,NNE,30,0.0,0.0,85,-99.99,,,0.00,1-wire,2013-06-19 10:39:00,
2013-06-19 05:44:00,50.4,46.1,30.12,NNE,30,0.0,0.0,85,-99.99,,,0.00,1-wire,2013-06-19 10:44:00,
2013-06-19 05:49:00,50.6,46.4,30.12,NNE,30,0.0,0.0,85,-99.99,,,0.00,1-wire,2013-06-19 10:49:00,
2013-06-19 05:54:00,50.6,46.4,30.12,NNE,29,0.0,0.0,85,-99.99,,,0.00,1-wire,2013-06-19 10:54:00,
2013-06-19 05:59:00,50.9,46.8,30.12,NNE,29,0.0,0.0,86,-99.99,,,0.00,1-wire,2013-06-19 10:59:00,
2013-06-19 06:04:00,51.0,46.9,30.13,NNE,29,0.0,0.0,86,-99.99,,,0.00,1-wire,2013-06-19 11:04:00,
2013-06-19 06:09:00,51.1,46.8,30.13,North,353,0.0,0.0,85,-99.99,,,0.00,1-wire,2013-06-19 11:09:00,
2013-06-19 06:14:00,51.4,47.0,30.12,North,353,0.0,0.0,85,-99.99,,,0.00,1-wire,2013-06-19 11:14:00,
2013-06-19 06:19:00,51.4,47.0,30.13,North,353,0.0,0.0,85,-99.99,,,0.00,1-wire,2013-06-19 11:19:00,
2013-06-19 06:24:00,51.6,47.0,30.13,NW,323,0.0,0.0,84,-99.99,,,0.00,1-wire,2013-06-19 11:24:00,
2013-06-19 06:29:00,51.9,47.1,30.13,NW,323,0.0,0.0,84,-99.99,,,0.00,1-wire,2013-06-19 11:29:00,
2013-06-19 06:34:00,52.1,47.1,30.14,NW,323,0.0,0.0,83,-99.99,,,0.00,1-wire,2013-06-19 11:34:00,
2013-06-19 06:39:00,52.4,47.4,30.14,NW,316,0.0,0.0,83,-99.99,,,0.00,1-wire,2013-06-19 11:39:00,
2013-06-19 06:44:00,52.9,47.3,30.14,NW,316,0.0,0.0,81,-99.99,,,0.00,1-wire,2013-06-19 11:44:00,
2013-06-19 06:49:00,53.0,47.0,30.14,NW,316,0.0,3.0,80,-99.99,,,0.00,1-wire,2013-06-19 11:49:00,
2013-06-19 06:54:00,53.4,46.4,30.14,NNW,331,0.0,3.0,77,-99.99,,,0.00,1-wire,2013-06-19 11:54:00,
2013-06-19 06:59:00,54.1,46.9,30.15,NNW,331,0.0,3.0,76,-99.99,,,0.00,1-wire,2013-06-19 11:59:00,
2013-06-19 07:04:00,54.4,46.4,30.15,NNW,331,0.0,3.0,74,-99.99,,,0.00,1-wire,2013-06-19 12:04:00,
2013-06-19 07:09:00,54.8,46.3,30.15,NNE,30,0.0,0.0,73,-99.99,,,0.00,1-wire,2013-06-19 12:09:00,
2013-06-19 07:14:00,55.4,46.3,30.15,NNE,30,1.0,3.0,71,-99.99,,,0.00,1-wire,2013-06-19 12:14:00,
2013-06-19 07:19:00,56.1,46.9,30.15,NNE,30,0.0,0.0,71,-99.99,,,0.00,1-wire,2013-06-19 12:19:00,
2013-06-19 07:24:00,56.3,46.0,30.15,NNE,24,1.0,6.0,68,-99.99,,,0.00,1-wire,2013-06-19 12:24:00,
2013-06-19 07:29:00,57.0,46.7,30.15,NNE,24,0.0,0.0,68,-99.99,,,0.00,1-wire,2013-06-19 12:29:00,
2013-06-19 07:34:00,57.6,47.3,30.16,NNE,24,0.0,0.0,68,-99.99,,,0.00,1-wire,2013-06-19 12:34:00,
2013-06-19 07:39:00,58.0,46.6,30.15,NNE,30,0.0,0.0,66,-99.99,,,0.00,1-wire,2013-06-19 12:39:00,
2013-06-19 07:44:00,58.6,46.6,30.16,NNE,30,0.0,0.0,64,-99.99,,,0.00,1-wire,2013-06-19 12:44:00,
2013-06-19 07:50:00,59.0,47.3,30.16,NNE,30,0.0,3.0,65,-99.99,,,0.00,1-wire,2013-06-19 12:50:00,
2013-06-19 07:55:00,59.7,47.3,30.16,NNE,29,0.0,0.0,64,-99.99,,,0.00,1-wire,2013-06-19 12:55:00,
2013-06-19 08:00:00,60.4,48.6,30.16,NNE,29,0.0,0.0,65,-99.99,,,0.00,1-wire,2013-06-19 13:00:00,
2013-06-19 08:05:00,60.8,47.7,30.16,NNE,29,1.0,3.0,62,-99.99,,,0.00,1-wire,2013-06-19 13:05:00,
2013-06-19 08:11:00,61.0,47.2,30.15,ESE,106,0.0,3.0,60,-99.99,,,0.00,1-wire,2013-06-19 13:11:00,
2013-06-19 08:16:00,61.7,47.5,30.15,ESE,106,0.0,0.0,60,-99.99,,,0.00,1-wire,2013-06-19 13:16:00,
2013-06-19 08:21:00,62.2,48.5,30.15,East,97,0.0,3.0,61,-99.99,,,0.00,1-wire,2013-06-19 13:21:00,
2013-06-19 08:26:00,62.8,48.8,30.15,East,97,1.0,3.0,60,-99.99,,,0.00,1-wire,2013-06-19 13:26:00,
2013-06-19 08:32:00,63.5,48.9,30.14,East,97,0.0,3.0,59,-99.99,,,0.00,1-wire,2013-06-19 13:32:00,
2013-06-19 08:37:00,64.3,50.1,30.14,East,96,0.0,0.0,60,-99.99,,,0.00,1-wire,2013-06-19 13:37:00,
2013-06-19 08:42:00,64.4,50.0,30.14,East,96,1.0,3.0,59,-99.99,,,0.00,1-wire,2013-06-19 13:42:00,
2013-06-19 08:47:00,65.5,50.2,30.15,East,96,1.0,3.0,58,-99.99,,,0.00,1-wire,2013-06-19 13:47:00,
2013-06-19 08:52:00,66.0,50.1,30.15,ESE,107,1.0,3.0,57,-99.99,,,0.00,1-wire,2013-06-19 13:52:00,
2013-06-19 08:57:00,66.6,50.4,30.15,ESE,107,0.0,0.0,56,-99.99,,,0.00,1-wire,2013-06-19 13:57:00,
2013-06-19 09:03:00,67.1,50.8,30.14,ESE,107,0.0,3.0,56,-99.99,,,0.00,1-wire,2013-06-19 14:03:00,
2013-06-19 09:09:00,67.6,51.0,30.15,SSE,157,1.0,4.0,55,-99.99,,,0.00,1-wire,2013-06-19 14:09:00,
2013-06-19 09:14:00,67.4,49.2,30.15,SSE,157,4.0,8.0,52,-99.99,,,0.00,1-wire,2013-06-19 14:14:00,
2013-06-19 09:19:00,67.6,49.5,30.15,SSE,157,0.0,3.0,52,-99.99,,,0.00,1-wire,2013-06-19 14:19:00,
2013-06-19 09:25:00,68.3,50.0,30.15,SSE,150,0.0,0.0,52,-99.99,,,0.00,1-wire,2013-06-19 14:25:00,
2013-06-19 09:31:00,68.3,49.7,30.15,SSE,150,1.0,3.0,51,-99.99,,,0.00,1-wire,2013-06-19 14:31:00,
2013-06-19 09:36:00,68.8,50.6,30.15,SSE,158,0.0,3.0,52,-99.99,,,0.00,1-wire,2013-06-19 14:36:00,
2013-06-19 09:41:00,69.2,49.6,30.15,SSE,158,2.0,6.0,50,-99.99,,,0.00,1-wire,2013-06-19 14:41:00,
2013-06-19 09:46:00,69.7,51.5,30.15,SSE,158,2.0,3.0,52,-99.99,,,0.00,1-wire,2013-06-19 14:46:00,
2013-06-19 09:51:00,69.6,49.4,30.14,SSE,147,1.0,3.0,49,-99.99,,,0.00,1-wire,2013-06-19 14:51:00,
2013-06-19 09:56:00,70.3,50.7,30.14,SSE,147,1.0,3.0,50,-99.99,,,0.00,1-wire,2013-06-19 14:56:00,
2013-06-19 10:01:00,69.8,47.9,30.14,SSE,147,4.0,9.0,46,-99.99,,,0.00,1-wire,2013-06-19 15:01:00,
2013-06-19 10:06:00,70.6,50.9,30.14,SE,145,0.0,3.0,50,-99.99,,,0.00,1-wire,2013-06-19 15:06:00,
2013-06-19 10:11:00,70.8,49.9,30.14,SE,145,2.0,6.0,48,-99.99,,,0.00,1-wire,2013-06-19 15:11:00,
2013-06-19 10:16:00,71.3,49.8,30.14,SE,145,2.0,6.0,47,-99.99,,,0.00,1-wire,2013-06-19 15:16:00,
2013-06-19 10:21:00,71.7,49.6,30.14,South,171,3.0,6.0,46,-99.99,,,0.00,1-wire,2013-06-19 15:21:00,
2013-06-19 10:26:00,71.5,48.8,30.14,South,171,2.0,6.0,45,-99.99,,,0.00,1-wire,2013-06-19 15:26:00,
2013-06-19 10:31:00,71.9,49.1,30.14,South,171,1.0,3.0,44,-99.99,,,0.00,1-wire,2013-06-19 15:31:00,
2013-06-19 10:36:00,72.3,49.6,30.14,SSE,160,1.0,3.0,45,-99.99,,,0.00,1-wire,2013-06-19 15:36:00,
2013-06-19 10:41:00,73.0,51.2,30.14,SSE,160,1.0,3.0,46,-99.99,,,0.00,1-wire,2013-06-19 15:41:00,
2013-06-19 10:46:00,72.4,49.2,30.14,SSE,160,3.0,6.0,44,-99.99,,,0.00,1-wire,2013-06-19 15:46:00,
2013-06-19 10:51:00,72.6,49.5,30.14,South,173,3.0,6.0,44,-99.99,,,0.00,1-wire,2013-06-19 15:51:00,
2013-06-19 10:56:00,72.4,50.6,30.14,South,173,1.0,3.0,46,-99.99,,,0.00,1-wire,2013-06-19 15:56:00,
2013-06-19 11:01:00,73.0,50.8,30.14,South,173,1.0,3.0,46,-99.99,,,0.00,1-wire,2013-06-19 16:01:00,
2013-06-19 11:06:00,73.2,50.3,30.14,South,174,3.0,6.0,45,-99.99,,,0.00,1-wire,2013-06-19 16:06:00,
2013-06-19 11:11:00,73.2,53.2,30.14,South,174,1.0,6.0,50,-99.99,,,0.00,1-wire,2013-06-19 16:11:00,
2013-06-19 11:16:00,73.9,51.0,30.13,South,174,0.0,3.0,45,-99.99,,,0.00,1-wire,2013-06-19 16:16:00,
2013-06-19 11:21:00,73.3,50.3,30.13,South,179,0.0,0.0,44,-99.99,,,0.00,1-wire,2013-06-19 16:21:00,
2013-06-19 11:26:00,74.4,53.1,30.14,South,179,0.0,3.0,47,-99.99,,,0.00,1-wire,2013-06-19 16:26:00,
2013-06-19 11:31:00,73.6,48.6,30.14,South,179,6.0,9.0,41,-99.99,,,0.00,1-wire,2013-06-19 16:31:00,
2013-06-19 11:36:00,74.8,50.9,30.13,SSW,195,2.0,3.0,43,-99.99,,,0.00,1-wire,2013-06-19 16:36:00,
2013-06-19 11:41:00,74.6,49.4,30.13,SSW,195,0.0,0.0,41,-99.99,,,0.00,1-wire,2013-06-19 16:41:00,
2013-06-19 11:46:00,74.6,49.0,30.13,SSW,195,1.0,3.0,41,-99.99,,,0.00,1-wire,2013-06-19 16:46:00,
2013-06-19 11:51:00,74.7,51.8,30.12,SSE,163,1.0,5.0,45,-99.99,,,0.00,1-wire,2013-06-19 16:51:00,
2013-06-19 11:56:00,75.1,51.2,30.12,SSE,163,3.0,6.0,43,-99.99,,,0.00,1-wire,2013-06-19 16:56:00,
2013-06-19 12:01:00,75.1,50.2,30.13,SSE,163,2.0,6.0,42,-99.99,,,0.00,1-wire,2013-06-19 17:01:00,
2013-06-19 12:06:00,74.2,48.5,30.13,SSW,211,3.0,6.0,40,-99.99,,,0.00,1-wire,2013-06-19 17:06:00,
2013-06-19 12:11:00,74.3,47.8,30.13,SSW,211,2.0,6.0,39,-99.99,,,0.00,1-wire,2013-06-19 17:11:00,
2013-06-19 12:16:00,74.8,49.1,30.12,SSW,211,5.0,9.0,40,-99.99,,,0.00,1-wire,2013-06-19 17:16:00,
2013-06-19 12:21:00,75.9,50.0,30.12,NW,312,0.0,3.0,40,-99.99,,,0.00,1-wire,2013-06-19 17:21:00,
2013-06-19 12:26:00,76.0,50.6,30.12,NW,312,1.0,3.0,41,-99.99,,,0.00,1-wire,2013-06-19 17:26:00,
2013-06-19 12:31:00,76.0,51.3,30.12,NW,312,0.0,3.0,42,-99.99,,,0.00,1-wire,2013-06-19 17:31:00,
2013-06-19 12:36:00,76.2,47.9,30.12,NNE,32,0.0,3.0,37,-99.99,,,0.00,1-wire,2013-06-19 17:36:00,
2013-06-19 12:41:00,75.9,48.8,30.12,NNE,32,2.0,3.0,38,-99.99,,,0.00,1-wire,2013-06-19 17:41:00,
2013-06-19 12:47:00,75.9,48.3,30.12,NNE,32,2.0,6.0,38,-99.99,,,0.00,1-wire,2013-06-19 17:47:00,
2013-06-19 12:52:00,76.6,49.7,30.12,WSW,248,2.0,4.0,39,-99.99,,,0.00,1-wire,2013-06-19 17:52:00,
2013-06-19 12:57:00,77.1,50.1,30.12,WSW,248,0.0,3.0,39,-99.99,,,0.00,1-wire,2013-06-19 17:57:00,
2013-06-19 13:02:00,76.9,50.0,30.12,WSW,248,1.0,7.0,39,-99.99,,,0.00,1-wire,2013-06-19 18:02:00,
2013-06-19 13:08:00,75.9,50.2,30.12,NNE,19,1.0,3.0,41,-99.99,,,0.00,1-wire,2013-06-19 18:08:00,
2013-06-19 13:13:00,76.8,51.1,30.12,NNE,19,0.0,6.0,41,-99.99,,,0.00,1-wire,2013-06-19 18:13:00,
2013-06-19 13:18:00,76.5,51.3,30.12,NNE,19,0.0,3.0,41,-99.99,,,0.00,1-wire,2013-06-19 18:18:00,
2013-06-19 13:23:00,76.6,51.8,30.12,NNE,28,0.0,3.0,42,-99.99,,,0.00,1-wire,2013-06-19 18:23:00,
2013-06-19 13:29:00,76.6,51.5,30.12,NNE,28,1.0,6.0,41,-99.99,,,0.00,1-wire,2013-06-19 18:29:00,
2013-06-19 13:34:00,77.0,52.6,30.11,NNE,28,2.0,9.0,43,-99.99,,,0.00,1-wire,2013-06-19 18:34:00,
2013-06-19 13:39:00,77.1,52.7,30.11,NNE,27,1.0,3.0,43,-99.99,,,0.00,1-wire,2013-06-19 18:39:00,
2013-06-19 13:44:00,77.3,51.9,30.10,NNE,27,1.0,3.0,41,-99.99,,,0.00,1-wire,2013-06-19 18:44:00,
2013-06-19 13:49:00,77.2,51.3,30.10,NNE,27,1.0,3.0,40,-99.99,,,0.00,1-wire,2013-06-19 18:49:00,
2013-06-19 13:55:00,78.0,52.1,30.10,NNE,29,1.0,3.0,41,-99.99,,,0.00,1-wire,2013-06-19 18:55:00,
2013-06-19 14:00:00,78.0,51.3,30.10,NNE,29,3.0,6.0,39,-99.99,,,0.00,1-wire,2013-06-19 19:00:00,
2013-06-19 14:05:00,78.1,52.6,30.10,NNE,29,2.0,6.0,41,-99.99,,,0.00,1-wire,2013-06-19 19:05:00,
2013-06-19 14:10:00,77.3,50.0,30.10,ENE,69,3.0,6.0,38,-99.99,,,0.00,1-wire,2013-06-19 19:10:00,
2013-06-19 14:16:00,77.8,51.8,30.10,ENE,69,2.0,5.0,40,-99.99,,,0.00,1-wire,2013-06-19 19:16:00,
2013-06-19 14:21:00,76.5,51.9,30.10,East,93,1.0,3.0,42,-99.99,,,0.00,1-wire,2013-06-19 19:21:00,
2013-06-19 14:26:00,77.0,51.1,30.10,East,93,2.0,6.0,40,-99.99,,,0.00,1-wire,2013-06-19 19:26:00,
2013-06-19 14:31:00,77.8,50.5,30.10,East,93,2.0,3.0,38,-99.99,,,0.00,1-wire,2013-06-19 19:31:00,
2013-06-19 14:36:00,77.9,51.7,30.10,East,88,2.0,6.0,40,-99.99,,,0.00,1-wire,2013-06-19 19:36:00,
2013-06-19 14:41:00,78.7,52.1,30.10,East,88,3.0,6.0,40,-99.99,,,0.00,1-wire,2013-06-19 19:41:00,
2013-06-19 14:46:00,77.8,53.8,30.09,East,88,1.0,6.0,44,-99.99,,,0.00,1-wire,2013-06-19 19:46:00,
2013-06-19 14:51:00,78.1,51.5,30.09,ESE,106,2.0,3.0,40,-99.99,,,0.00,1-wire,2013-06-19 19:51:00,
2013-06-19 14:56:00,78.6,53.6,30.09,ESE,106,1.0,3.0,42,-99.99,,,0.00,1-wire,2013-06-19 19:56:00,
2013-06-19 15:01:00,78.1,53.9,30.08,ESE,106,1.0,3.0,43,-99.99,,,0.00,1-wire,2013-06-19 20:01:00,
2013-06-19 15:06:00,78.0,51.4,30.09,SSE,147,3.0,7.0,40,-99.99,,,0.00,1-wire,2013-06-19 20:06:00,
2013-06-19 15:11:00,77.6,49.9,30.09,SSE,147,1.0,3.0,38,-99.99,,,0.00,1-wire,2013-06-19 20:11:00,
2013-06-19 15:16:00,78.4,53.8,30.09,SSE,147,2.0,3.0,43,-99.99,,,0.00,1-wire,2013-06-19 20:16:00,
2013-06-19 15:21:00,78.7,51.1,30.09,SE,127,1.0,3.0,38,-99.99,,,0.00,1-wire,2013-06-19 20:21:00,
2013-06-19 15:26:00,78.3,50.9,30.08,SE,127,1.0,3.0,39,-99.99,,,0.00,1-wire,2013-06-19 20:26:00,
2013-06-19 15:31:00,78.2,51.5,30.08,SE,127,4.0,6.0,39,-99.99,,,0.00,1-wire,2013-06-19 20:31:00,
2013-06-19 15:36:00,78.6,51.8,30.07,SE,133,0.0,0.0,39,-99.99,,,0.00,1-wire,2013-06-19 20:36:00,
2013-06-19 15:41:00,77.9,48.9,30.08,SE,133,0.0,3.0,36,-99.99,,,0.00,1-wire,2013-06-19 20:41:00,
2013-06-19 15:46:00,78.1,49.4,30.08,SE,133,0.0,3.0,37,-99.99,,,0.00,1-wire,2013-06-19 20:46:00,
2013-06-19 15:51:00,78.1,50.9,30.07,SSE,152,2.0,6.0,39,-99.99,,,0.00,1-wire,2013-06-19 20:51:00,
2013-06-19 15:56:00,78.6,52.0,30.08,SSE,152,0.0,3.0,40,-99.99,,,0.00,1-wire,2013-06-19 20:56:00,
2013-06-19 16:01:00,79.0,52.4,30.07,SSE,152,1.0,3.0,40,-99.99,,,0.00,1-wire,2013-06-19 21:01:00,
2013-06-19 16:06:00,78.4,50.7,30.08,ESE,120,3.0,6.0,38,-99.99,,,0.00,1-wire,2013-06-19 21:06:00,
2013-06-19 16:11:00,78.0,50.2,30.08,ESE,120,2.0,3.0,38,-99.99,,,0.00,1-wire,2013-06-19 21:11:00,
2013-06-19 16:16:00,78.3,52.9,30.08,ESE,120,0.0,0.0,41,-99.99,,,0.00,1-wire,2013-06-19 21:16:00,
2013-06-19 16:21:00,78.2,50.5,30.08,SE,130,2.0,6.0,38,-99.99,,,0.00,1-wire,2013-06-19 21:21:00,
2013-06-19 16:26:00,78.6,50.8,30.08,SE,130,0.0,3.0,38,-99.99,,,0.00,1-wire,2013-06-19 21:26:00,
2013-06-19 16:31:00,78.5,52.4,30.07,SE,130,3.0,6.0,40,-99.99,,,0.00,1-wire,2013-06-19 21:31:00,
2013-06-19 16:36:00,79.4,50.5,30.07,ESE,110,1.0,6.0,37,-99.99,,,0.00,1-wire,2013-06-19 21:36:00,
2013-06-19 16:41:00,79.1,49.5,30.07,ESE,110,0.0,3.0,36,-99.99,,,0.00,1-wire,2013-06-19 21:41:00,
2013-06-19 16:46:00,79.2,50.5,30.07,ESE,110,0.0,0.0,37,-99.99,,,0.00,1-wire,2013-06-19 21:46:00,
2013-06-19 16:51:00,79.2,52.6,30.07,SSE,152,1.0,3.0,40,-99.99,,,0.00,1-wire,2013-06-19 21:51:00,
2013-06-19 16:56:00,78.6,50.5,30.07,SSE,152,0.0,0.0,38,-99.99,,,0.00,1-wire,2013-06-19 21:56:00,
2013-06-19 17:01:00,78.6,49.8,30.07,SSE,152,2.0,6.0,36,-99.99,,,0.00,1-wire,2013-06-19 22:01:00,
2013-06-19 17:07:00,79.6,51.4,30.07,SSE,157,3.0,6.0,38,-99.99,,,0.00,1-wire,2013-06-19 22:07:00,
2013-06-19 17:13:00,80.3,50.3,30.07,SSE,157,1.0,3.0,35,-99.99,,,0.00,1-wire,2013-06-19 22:13:00,
2013-06-19 17:18:00,80.0,50.6,30.07,SSE,157,0.0,0.0,36,-99.99,,,0.00,1-wire,2013-06-19 22:18:00,
2013-06-19 17:23:00,79.2,49.6,30.07,SSE,154,0.0,3.0,36,-99.99,,,0.00,1-wire,2013-06-19 22:23:00,
2013-06-19 17:28:00,78.6,48.9,30.07,SSE,154,0.0,3.0,35,-99.99,,,0.00,1-wire,2013-06-19 22:28:00,
2013-06-19 17:33:00,79.0,49.9,30.07,SSE,154,1.0,3.0,36,-99.99,,,0.00,1-wire,2013-06-19 22:33:00,
2013-06-19 17:39:00,78.5,49.8,30.07,SE,136,4.0,7.0,37,-99.99,,,0.00,1-wire,2013-06-19 22:39:00,
2013-06-19 17:44:00,78.7,49.4,30.07,SE,136,0.0,3.0,36,-99.99,,,0.00,1-wire,2013-06-19 22:44:00,
2013-06-19 17:49:00,78.7,49.8,30.07,SE,136,1.0,3.0,36,-99.99,,,0.00,1-wire,2013-06-19 22:49:00,
2013-06-19 17:54:00,78.9,50.3,30.07,SSE,157,0.0,0.0,37,-99.99,,,0.00,1-wire,2013-06-19 22:54:00,
2013-06-19 18:00:00,79.3,50.7,30.07,SSE,157,0.0,0.0,37,-99.99,,,0.00,1-wire,2013-06-19 23:00:00,
2013-06-19 18:05:00,78.9,52.9,30.07,SSE,157,0.0,0.0,41,-99.99,,,0.00,1-wire,2013-06-19 23:05:00,
2013-06-19 18:10:00,78.4,50.4,30.07,SE,141,2.0,3.0,38,-99.99,,,0.00,1-wire,2013-06-19 23:10:00,
2013-06-19 18:15:00,78.5,51.6,30.07,SE,141,0.0,3.0,39,-99.99,,,0.00,1-wire,2013-06-19 23:15:00,
2013-06-19 18:20:00,78.5,52.0,30.07,SE,141,0.0,0.0,40,-99.99,,,0.00,1-wire,2013-06-19 23:20:00,
2013-06-19 18:26:00,78.5,51.1,30.07,NNW,335,0.0,0.0,39,-99.99,,,0.00,1-wire,2013-06-19 23:26:00,
2013-06-19 18:31:00,78.0,50.1,30.07,NNW,335,0.0,3.0,38,-99.99,,,0.00,1-wire,2013-06-19 23:31:00,
2013-06-19 18:36:00,78.0,51.9,30.07,SSW,194,0.0,0.0,40,-99.99,,,0.00,1-wire,2013-06-19 23:36:00,
2013-06-19 18:41:00,78.0,52.5,30.07,SSW,194,0.0,3.0,41,-99.99,,,0.00,1-wire,2013-06-19 23:41:00,
2013-06-19 18:47:00,78.0,52.9,30.06,SSW,194,0.0,0.0,42,-99.99,,,0.00,1-wire,2013-06-19 23:47:00,
2013-06-19 18:52:00,77.4,52.2,30.07,SE,140,0.0,0.0,42,-99.99,,,0.00,1-wire,2013-06-19 23:52:00,
2013-06-19 18:57:00,77.5,52.3,30.07,SE,140,0.0,3.0,42,-99.99,,,0.00,1-wire,2013-06-19 23:57:00,
2013-06-19 19:02:00,77.5,52.8,30.07,SE,140,0.0,0.0,42,-99.99,,,0.00,1-wire,2013-06-20 00:02:00,
2013-06-19 19:08:00,77.4,52.5,30.07,SW,225,1.0,3.0,42,-99.99,,,0.00,1-wire,2013-06-20 00:08:00,
2013-06-19 19:13:00,77.4,52.3,30.07,SW,225,1.0,3.0,42,-99.99,,,0.00,1-wire,2013-06-20 00:13:00,
2013-06-19 19:18:00,77.3,53.7,30.07,SW,225,0.0,0.0,44,-99.99,,,0.00,1-wire,2013-06-20 00:18:00,
2013-06-19 19:23:00,76.6,53.6,30.07,SW,221,0.0,0.0,45,-99.99,,,0.00,1-wire,2013-06-20 00:23:00,
2013-06-19 19:28:00,76.5,54.6,30.07,SW,221,0.0,0.0,47,-99.99,,,0.00,1-wire,2013-06-20 00:28:00,
2013-06-19 19:33:00,76.0,54.4,30.07,SW,221,0.0,0.0,47,-99.99,,,0.00,1-wire,2013-06-20 00:33:00,
2013-06-19 19:38:00,75.8,54.3,30.07,SW,216,0.0,0.0,47,-99.99,,,0.00,1-wire,2013-06-20 00:38:00,
2013-06-19 19:43:00,75.8,55.0,30.07,SW,216,0.0,0.0,49,-99.99,,,0.00,1-wire,2013-06-20 00:43:00,
2013-06-19 19:48:00,75.4,55.2,30.07,SW,216,0.0,0.0,50,-99.99,,,0.00,1-wire,2013-06-20 00:48:00,
2013-06-19 19:53:00,74.9,55.2,30.07,SSW,199,0.0,0.0,50,-99.99,,,0.00,1-wire,2013-06-20 00:53:00,
2013-06-19 19:58:00,74.2,54.9,30.07,SSW,199,0.0,0.0,51,-99.99,,,0.00,1-wire,2013-06-20 00:58:00,
2013-06-19 20:03:00,74.2,55.0,30.07,SSW,199,0.0,0.0,51,-99.99,,,0.00,1-wire,2013-06-20 01:03:00,
2013-06-19 20:08:00,74.0,55.9,30.07,NNE,29,0.0,0.0,53,-99.99,,,0.00,1-wire,2013-06-20 01:08:00,
2013-06-19 20:13:00,73.5,55.8,30.07,NNE,29,0.0,0.0,54,-99.99,,,0.00,1-wire,2013-06-20 01:13:00,
2013-06-19 20:18:00,73.1,55.8,30.07,NNE,29,0.0,0.0,55,-99.99,,,0.00,1-wire,2013-06-20 01:18:00,
2013-06-19 20:23:00,72.6,55.7,30.07,NNE,12,0.0,0.0,55,-99.99,,,0.00,1-wire,2013-06-20 01:23:00,
2013-06-19 20:28:00,72.4,55.5,30.07,NNE,12,0.0,0.0,56,-99.99,,,0.00,1-wire,2013-06-20 01:28:00,
2013-06-19 20:33:00,72.4,56.2,30.07,NNE,12,0.0,0.0,57,-99.99,,,0.00,1-wire,2013-06-20 01:33:00,
2013-06-19 20:38:00,71.7,56.0,30.07,NNE,28,0.0,0.0,58,-99.99,,,0.00,1-wire,2013-06-20 01:38:00,
2013-06-19 20:43:00,71.4,56.1,30.07,NNE,28,0.0,0.0,58,-99.99,,,0.00,1-wire,2013-06-20 01:43:00,
2013-06-19 20:48:00,70.3,55.6,30.06,NNE,28,0.0,0.0,60,-99.99,,,0.00,1-wire,2013-06-20 01:48:00,
2013-06-19 20:53:00,70.4,55.5,30.07,NNE,26,0.0,0.0,59,-99.99,,,0.00,1-wire,2013-06-20 01:53:00,
2013-06-19 20:58:00,70.0,55.6,30.07,NNE,26,0.0,0.0,60,-99.99,,,0.00,1-wire,2013-06-20 01:58:00,
2013-06-19 21:03:00,69.9,55.8,30.07,NNE,26,0.0,0.0,61,-99.99,,,0.00,1-wire,2013-06-20 02:03:00,
2013-06-19 21:08:00,69.7,55.8,30.07,NNE,30,0.0,0.0,61,-99.99,,,0.00,1-wire,2013-06-20 02:08:00,
2013-06-19 21:13:00,69.4,55.7,30.07,NNE,30,0.0,0.0,62,-99.99,,,0.00,1-wire,2013-06-20 02:13:00,
2013-06-19 21:18:00,68.2,55.2,30.07,NNE,30,0.0,3.0,63,-99.99,,,0.00,1-wire,2013-06-20 02:18:00,
2013-06-19 21:23:00,68.0,55.1,30.08,NNE,28,1.0,6.0,64,-99.99,,,0.00,1-wire,2013-06-20 02:23:00,
2013-06-19 21:28:00,68.4,54.2,30.07,NNE,28,4.0,8.0,60,-99.99,,,0.00,1-wire,2013-06-20 02:28:00,
2013-06-19 21:33:00,69.2,54.2,30.08,NNE,28,1.0,6.0,59,-99.99,,,0.00,1-wire,2013-06-20 02:33:00,
2013-06-19 21:38:00,69.4,54.4,30.08,NNE,21,0.0,3.0,59,-99.99,,,0.00,1-wire,2013-06-20 02:38:00,
2013-06-19 21:43:00,69.4,54.3,30.09,NNE,21,1.0,3.0,59,-99.99,,,0.00,1-wire,2013-06-20 02:43:00,
2013-06-19 21:48:00,69.3,54.6,30.09,NNE,21,0.0,3.0,60,-99.99,,,0.00,1-wire,2013-06-20 02:48:00,
2013-06-19 21:53:00,69.1,54.5,30.09,NNE,21,0.0,0.0,60,-99.99,,,0.00,1-wire,2013-06-20 02:53:00,
2013-06-19 21:58:00,68.3,54.4,30.10,NNE,21,0.0,0.0,61,-99.99,,,0.00,1-wire,2013-06-20 02:58:00,
2013-06-19 22:03:00,68.3,54.3,30.10,NNE,21,0.0,0.0,61,-99.99,,,0.00,1-wire,2013-06-20 03:03:00,
2013-06-19 22:09:00,68.1,53.9,30.09,SSE,150,0.0,3.0,61,-99.99,,,0.00,1-wire,2013-06-20 03:09:00,
2013-06-19 22:15:00,67.8,53.6,30.10,SSE,150,1.0,3.0,60,-99.99,,,0.00,1-wire,2013-06-20 03:15:00,
2013-06-19 22:21:00,67.8,52.9,30.09,SSE,152,0.0,3.0,59,-99.99,,,0.00,1-wire,2013-06-20 03:21:00,
2013-06-19 22:27:00,67.7,52.7,30.09,SSE,152,1.0,8.0,59,-99.99,,,0.00,1-wire,2013-06-20 03:27:00,
2013-06-19 22:33:00,67.7,52.0,30.10,SSE,152,0.0,3.0,57,-99.99,,,0.00,1-wire,2013-06-20 03:33:00,
2013-06-19 22:39:00,67.7,52.6,30.10,SSE,150,0.0,0.0,58,-99.99,,,0.00,1-wire,2013-06-20 03:39:00,
2013-06-19 22:44:00,67.3,52.0,30.10,SSE,150,0.0,3.0,58,-99.99,,,0.00,1-wire,2013-06-20 03:44:00,
2013-06-19 22:49:00,66.9,51.9,30.10,SSE,150,0.0,0.0,59,-99.99,,,0.00,1-wire,2013-06-20 03:49:00,
2013-06-19 22:54:00,66.6,52.0,30.10,SSE,153,0.0,3.0,59,-99.99,,,0.00,1-wire,2013-06-20 03:54:00,
2013-06-19 22:59:00,66.4,52.1,30.10,SSE,153,0.0,0.0,60,-99.99,,,0.00,1-wire,2013-06-20 03:59:00,
2013-06-19 23:01:00,66.2,52.2,30.10,SSE,153,0.0,0.0,61,-99.99,,,0.00,1-wire,2013-06-20 04:01:00,
2013-06-19 23:02:00,66.3,52.1,30.10,SSE,153,0.0,0.0,60,-99.99,,,0.00,1-wire,2013-06-20 04:02:00,
2013-06-19 23:03:00,66.2,51.6,30.10,SSE,153,0.0,3.0,59,-99.99,,,0.00,1-wire,2013-06-20 04:03:00,
2013-06-19 23:04:00,65.9,51.4,30.10,SSE,153,0.0,3.0,59,-99.99,,,0.00,1-wire,2013-06-20 04:04:00,
2013-06-19 23:05:00,65.8,51.3,30.10,SSE,153,0.0,3.0,60,-99.99,,,0.00,1-wire,2013-06-20 04:05:00,
2013-06-19 23:10:00,65.8,51.3,30.10,SE,136,0.0,3.0,59,-99.99,,,0.00,1-wire,2013-06-20 04:10:00,
2013-06-19 23:16:00,65.6,50.9,30.10,SE,136,0.0,0.0,59,-99.99,,,0.00,1-wire,2013-06-20 04:16:00,
2013-06-19 23:22:00,65.6,50.8,30.10,SE,142,0.0,3.0,59,-99.99,,,0.00,1-wire,2013-06-20 04:22:00,
2013-06-19 23:28:00,65.5,50.7,30.10,SE,142,0.0,0.0,59,-99.99,,,0.00,1-wire,2013-06-20 04:28:00,
2013-06-19 23:34:00,65.4,50.7,30.11,SE,142,0.0,3.0,59,-99.99,,,0.00,1-wire,2013-06-20 04:34:00,
2013-06-19 23:40:00,65.3,50.1,30.10,SE,146,0.0,3.0,58,-99.99,,,0.00,1-wire,2013-06-20 04:40:00,
2013-06-19 23:46:00,65.4,49.7,30.11,SE,146,0.0,3.0,57,-99.99,,,0.00,1-wire,2013-06-20 04:46:00,
2013-06-19 23:52:00,65.3,49.5,30.11,SSE,147,0.0,0.0,57,-99.99,,,0.00,1-wire,2013-06-20 04:52:00,
2013-06-19 23:58:00,65.1,49.0,30.11,SSE,147,0.0,0.0,56,-99.99,,,0.00,1-wire,2013-06-20 04:58:00,